Time,TemperatureF,DewpointF,PressureIn,WindDirection,WindDirectionDegrees,WindSpeedMPH,WindSpeedGustMPH,Humidity,HourlyPrecipIn,Conditions,Clouds,dailyrainin,SoftwareType,DateUTC
2013-10-11 00:01:00,52.2,42.4,30.04,North,0,0.0,0.0,69,0.00,,,0.00,WUHU216HW,2013-10-11 07:01:00,
2013-10-11 00:06:00,52.2,42.4,30.03,North,0,0.0,0.0,69,0.00,,,0.00,WUHU216HW,2013-10-11 07:06:00,
2013-10-11 00:11:00,52.2,42.4,30.03,North,0,0.0,0.0,69,0.00,,,0.00,WUHU216HW,2013-10-11 07:11:00,
2013-10-11 00:16:00,52.0,42.7,30.04,North,0,0.0,0.0,70,0.00,,,0.00,WUHU216HW,2013-10-11 07:16:00,
2013-10-11 00:21:00,52.0,42.7,30.03,North,0,0.0,0.0,70,0.00,,,0.00,WUHU216HW,2013-10-11 07:21:00,
2013-10-11 00:26:00,52.0,42.7,30.03,North,0,0.0,0.0,70,0.00,,,0.00,WUHU216HW,2013-10-11 07:26:00,
2013-10-11 00:31:00,52.0,43.0,30.03,North,0,0.0,0.0,71,0.00,,,0.00,WUHU216HW,2013-10-11 07:31:00,
2013-10-11 00:36:00,52.2,42.4,30.03,North,0,0.0,0.0,69,0.00,,,0.00,WUHU216HW,2013-10-11 07:36:00,
2013-10-11 00:41:00,52.0,42.2,30.03,North,0,0.0,0.0,69,0.00,,,0.00,WUHU216HW,2013-10-11 07:41:00,
2013-10-11 00:46:00,52.0,42.2,30.03,North,0,0.0,0.0,69,0.00,,,0.00,WUHU216HW,2013-10-11 07:46:00,
2013-10-11 00:51:00,51.8,41.7,30.03,North,0,0.0,0.0,68,0.00,,,0.00,WUHU216HW,2013-10-11 07:51:00,
2013-10-11 00:56:00,51.8,41.7,30.03,North,0,0.0,0.0,68,0.00,,,0.00,WUHU216HW,2013-10-11 07:56:00,
2013-10-11 01:01:00,52.0,42.2,30.03,North,0,0.0,0.0,69,0.00,,,0.00,WUHU216HW,2013-10-11 08:01:00,
2013-10-11 01:06:00,52.0,41.9,30.03,North,0,0.0,0.0,68,0.00,,,0.00,WUHU216HW,2013-10-11 08:06:00,
2013-10-11 01:11:00,52.0,41.9,30.03,North,0,0.0,0.0,68,0.00,,,0.00,WUHU216HW,2013-10-11 08:11:00,
2013-10-11 01:16:00,51.8,41.7,30.03,North,0,0.0,0.0,68,0.00,,,0.00,WUHU216HW,2013-10-11 08:16:00,
2013-10-11 01:21:00,51.8,41.7,30.03,North,0,0.0,0.0,68,0.00,,,0.00,WUHU216HW,2013-10-11 08:21:00,
2013-10-11 01:26:00,51.8,41.7,30.04,North,0,0.0,0.0,68,0.00,,,0.00,WUHU216HW,2013-10-11 08:26:00,
2013-10-11 01:31:00,51.8,41.7,30.04,North,0,0.0,0.0,68,0.00,,,0.00,WUHU216HW,2013-10-11 08:31:00,
2013-10-11 01:36:00,51.7,41.5,30.03,North,0,0.0,0.0,68,0.00,,,0.00,WUHU216HW,2013-10-11 08:36:00,
2013-10-11 01:41:00,51.7,41.5,30.04,North,0,0.0,0.0,68,0.00,,,0.00,WUHU216HW,2013-10-11 08:41:00,
2013-10-11 01:46:00,51.7,41.5,30.04,North,0,0.0,0.0,68,0.00,,,0.00,WUHU216HW,2013-10-11 08:46:00,
2013-10-11 01:51:00,51.7,41.5,30.04,North,0,0.0,0.0,68,0.00,,,0.00,WUHU216HW,2013-10-11 08:51:00,
2013-10-11 01:56:00,51.5,41.3,30.04,North,0,0.0,0.0,68,0.00,,,0.00,WUHU216HW,2013-10-11 08:56:00,
2013-10-11 02:01:00,51.5,41.3,30.04,North,0,0.0,0.0,68,0.00,,,0.00,WUHU216HW,2013-10-11 09:01:00,
2013-10-11 02:06:00,51.5,41.3,30.04,North,0,0.0,0.0,68,0.00,,,0.00,WUHU216HW,2013-10-11 09:06:00,
2013-10-11 02:11:00,51.5,41.3,30.04,North,0,0.0,0.0,68,0.00,,,0.00,WUHU216HW,2013-10-11 09:11:00,
2013-10-11 02:16:00,51.7,41.5,30.04,North,0,0.0,0.0,68,0.00,,,0.00,WUHU216HW,2013-10-11 09:16:00,
2013-10-11 02:21:00,51.8,41.7,30.04,North,0,0.0,0.0,68,0.00,,,0.00,WUHU216HW,2013-10-11 09:21:00,
2013-10-11 02:26:00,51.8,41.7,30.04,North,0,0.0,0.0,68,0.00,,,0.00,WUHU216HW,2013-10-11 09:26:00,
2013-10-11 02:31:00,51.8,41.7,30.04,North,0,0.0,0.0,68,0.00,,,0.00,WUHU216HW,2013-10-11 09:31:00,
2013-10-11 02:36:00,51.8,41.7,30.04,North,0,0.0,0.0,68,0.00,,,0.00,WUHU216HW,2013-10-11 09:36:00,
2013-10-11 02:41:00,51.8,41.7,30.04,North,0,0.0,0.0,68,0.00,,,0.00,WUHU216HW,2013-10-11 09:41:00,
2013-10-11 02:46:00,51.8,41.7,30.04,North,0,0.0,0.0,68,0.00,,,0.00,WUHU216HW,2013-10-11 09:46:00,
2013-10-11 02:51:00,51.8,41.7,30.04,North,0,0.0,0.0,68,0.00,,,0.00,WUHU216HW,2013-10-11 09:51:00,
2013-10-11 02:56:00,52.0,41.4,30.04,North,0,0.0,0.0,67,0.00,,,0.00,WUHU216HW,2013-10-11 09:56:00,
2013-10-11 03:01:00,52.2,41.6,30.04,North,0,0.0,0.0,67,0.00,,,0.00,WUHU216HW,2013-10-11 10:01:00,
2013-10-11 03:06:00,52.0,41.4,30.04,North,0,0.0,0.0,67,0.00,,,0.00,WUHU216HW,2013-10-11 10:06:00,
2013-10-11 03:11:00,51.8,41.2,30.04,North,0,0.0,0.0,67,0.00,,,0.00,WUHU216HW,2013-10-11 10:11:00,
2013-10-11 03:16:00,52.0,41.4,30.03,North,0,0.0,0.0,67,0.00,,,0.00,WUHU216HW,2013-10-11 10:16:00,
2013-10-11 03:21:00,52.0,41.4,30.03,North,0,0.0,0.0,67,0.00,,,0.00,WUHU216HW,2013-10-11 10:21:00,
2013-10-11 03:26:00,52.2,41.1,30.03,North,0,0.0,0.0,66,0.00,,,0.00,WUHU216HW,2013-10-11 10:26:00,
2013-10-11 03:31:00,52.0,41.0,30.04,North,0,0.0,0.0,66,0.00,,,0.00,WUHU216HW,2013-10-11 10:31:00,
2013-10-11 03:36:00,52.0,41.4,30.03,North,0,0.0,0.0,67,0.00,,,0.00,WUHU216HW,2013-10-11 10:36:00,
2013-10-11 03:41:00,51.8,41.2,30.04,North,0,0.0,0.0,67,0.00,,,0.00,WUHU216HW,2013-10-11 10:41:00,
2013-10-11 03:46:00,51.7,41.0,30.04,North,0,0.0,0.0,67,0.00,,,0.00,WUHU216HW,2013-10-11 10:46:00,
2013-10-11 03:51:00,51.5,41.3,30.04,North,0,0.0,0.0,68,0.00,,,0.00,WUHU216HW,2013-10-11 10:51:00,
2013-10-11 03:56:00,51.3,41.1,30.04,North,0,0.0,0.0,68,0.00,,,0.00,WUHU216HW,2013-10-11 10:56:00,
2013-10-11 04:01:00,51.1,41.0,30.04,North,0,0.0,0.0,68,0.00,,,0.00,WUHU216HW,2013-10-11 11:01:00,
2013-10-11 04:06:00,51.1,41.0,30.04,North,0,0.0,0.0,68,0.00,,,0.00,WUHU216HW,2013-10-11 11:06:00,
2013-10-11 04:11:00,50.9,40.8,30.04,North,0,0.0,0.0,68,0.00,,,0.00,WUHU216HW,2013-10-11 11:11:00,
2013-10-11 04:16:00,50.9,40.8,30.04,North,0,0.0,0.0,68,0.00,,,0.00,WUHU216HW,2013-10-11 11:16:00,
2013-10-11 04:21:00,50.9,40.8,30.04,North,0,0.0,0.0,68,0.00,,,0.00,WUHU216HW,2013-10-11 11:21:00,
2013-10-11 04:26:00,51.1,41.0,30.04,North,0,0.0,0.0,68,0.00,,,0.00,WUHU216HW,2013-10-11 11:26:00,
2013-10-11 04:31:00,51.1,41.0,30.04,North,0,0.0,0.0,68,0.00,,,0.00,WUHU216HW,2013-10-11 11:31:00,
2013-10-11 04:36:00,51.1,41.0,30.04,North,0,0.0,0.0,68,0.00,,,0.00,WUHU216HW,2013-10-11 11:36:00,
2013-10-11 04:41:00,50.9,40.8,30.04,North,0,0.0,0.0,68,0.00,,,0.00,WUHU216HW,2013-10-11 11:41:00,
2013-10-11 04:46:00,50.9,40.8,30.05,North,0,0.0,0.0,68,0.00,,,0.00,WUHU216HW,2013-10-11 11:46:00,
2013-10-11 04:51:00,50.9,40.8,30.04,North,0,0.0,0.0,68,0.00,,,0.00,WUHU216HW,2013-10-11 11:51:00,
2013-10-11 04:56:00,50.9,40.8,30.05,North,0,0.0,0.0,68,0.00,,,0.00,WUHU216HW,2013-10-11 11:56:00,
2013-10-11 05:01:00,50.8,40.6,30.05,North,0,0.0,0.0,68,0.00,,,0.00,WUHU216HW,2013-10-11 12:01:00,
2013-10-11 05:06:00,50.6,40.4,30.05,North,0,0.0,0.0,68,0.00,,,0.00,WUHU216HW,2013-10-11 12:06:00,
2013-10-11 05:11:00,50.6,40.4,30.05,North,0,0.0,0.0,68,0.00,,,0.00,WUHU216HW,2013-10-11 12:11:00,
2013-10-11 05:16:00,50.6,40.4,30.05,North,0,0.0,0.0,68,0.00,,,0.00,WUHU216HW,2013-10-11 12:16:00,
2013-10-11 05:21:00,50.8,40.6,30.05,North,0,0.0,0.0,68,0.00,,,0.00,WUHU216HW,2013-10-11 12:21:00,
2013-10-11 05:26:00,50.9,40.8,30.05,North,0,0.0,0.0,68,0.00,,,0.00,WUHU216HW,2013-10-11 12:26:00,
2013-10-11 05:31:00,50.9,40.8,30.05,North,0,0.0,0.0,68,0.00,,,0.00,WUHU216HW,2013-10-11 12:31:00,
2013-10-11 05:36:00,50.9,40.8,30.05,North,0,0.0,0.0,68,0.00,,,0.00,WUHU216HW,2013-10-11 12:36:00,
2013-10-11 05:41:00,50.8,40.6,30.05,North,0,0.0,0.0,68,0.00,,,0.00,WUHU216HW,2013-10-11 12:41:00,
2013-10-11 05:46:00,50.6,40.4,30.05,North,0,0.0,0.0,68,0.00,,,0.00,WUHU216HW,2013-10-11 12:46:00,
2013-10-11 05:50:00,50.4,39.9,30.05,North,0,0.0,0.0,67,0.00,,,0.00,WUHU216HW,2013-10-11 12:50:00,
2013-10-11 05:55:00,50.4,39.9,30.06,North,0,0.0,0.0,67,0.00,,,0.00,WUHU216HW,2013-10-11 12:55:00,
2013-10-11 06:01:00,50.4,39.9,30.06,North,0,0.0,0.0,67,0.00,,,0.00,WUHU216HW,2013-10-11 13:01:00,
2013-10-11 06:06:00,50.4,39.9,30.06,North,0,0.0,0.0,67,0.00,,,0.00,WUHU216HW,2013-10-11 13:06:00,
2013-10-11 06:11:00,50.4,39.9,30.06,North,0,0.0,0.0,67,0.00,,,0.00,WUHU216HW,2013-10-11 13:11:00,
2013-10-11 06:15:00,50.4,40.2,30.06,North,0,0.0,0.0,68,0.00,,,0.00,WUHU216HW,2013-10-11 13:15:00,
2013-10-11 06:21:00,50.4,40.2,30.06,North,0,0.0,0.0,68,0.00,,,0.00,WUHU216HW,2013-10-11 13:21:00,
2013-10-11 06:26:00,50.2,39.7,30.06,North,0,0.0,0.0,67,0.00,,,0.00,WUHU216HW,2013-10-11 13:26:00,
2013-10-11 06:31:00,50.2,40.1,30.06,North,0,0.0,0.0,68,0.00,,,0.00,WUHU216HW,2013-10-11 13:31:00,
2013-10-11 06:36:00,50.0,39.9,30.06,North,0,0.0,0.0,68,0.00,,,0.00,WUHU216HW,2013-10-11 13:36:00,
2013-10-11 06:41:00,50.2,40.1,30.06,North,0,0.0,0.0,68,0.00,,,0.00,WUHU216HW,2013-10-11 13:41:00,
2013-10-11 06:46:00,50.4,39.9,30.06,North,0,0.0,0.0,67,0.00,,,0.00,WUHU216HW,2013-10-11 13:46:00,
2013-10-11 06:51:00,50.6,40.1,30.06,North,0,0.0,0.0,67,0.00,,,0.00,WUHU216HW,2013-10-11 13:51:00,
2013-10-11 06:55:00,50.6,40.4,30.07,North,0,0.0,0.0,68,0.00,,,0.00,WUHU216HW,2013-10-11 13:55:00,
2013-10-11 07:00:00,50.6,40.4,30.07,North,0,0.0,0.0,68,0.00,,,0.00,WUHU216HW,2013-10-11 14:00:00,
2013-10-11 07:05:00,50.8,40.2,30.07,North,0,0.0,0.0,67,0.00,,,0.00,WUHU216HW,2013-10-11 14:05:00,
2013-10-11 07:10:00,50.6,40.1,30.07,North,0,0.0,0.0,67,0.00,,,0.00,WUHU216HW,2013-10-11 14:10:00,
2013-10-11 07:15:00,50.4,39.4,30.07,North,0,0.0,0.0,66,0.00,,,0.00,WUHU216HW,2013-10-11 14:15:00,
2013-10-11 07:20:00,50.6,40.1,30.07,North,0,0.0,0.0,67,0.00,,,0.00,WUHU216HW,2013-10-11 14:20:00,
2013-10-11 07:25:00,50.4,39.4,30.07,North,0,0.0,0.0,66,0.00,,,0.00,WUHU216HW,2013-10-11 14:25:00,
2013-10-11 07:30:00,50.4,39.4,30.07,North,0,0.0,0.0,66,0.00,,,0.00,WUHU216HW,2013-10-11 14:30:00,
2013-10-11 07:35:00,50.4,39.4,30.07,North,0,0.0,0.0,66,0.00,,,0.00,WUHU216HW,2013-10-11 14:35:00,
2013-10-11 07:40:00,50.4,39.4,30.07,North,0,0.0,0.0,66,0.00,,,0.00,WUHU216HW,2013-10-11 14:40:00,
2013-10-11 07:45:00,50.4,39.4,30.07,North,0,0.0,0.0,66,0.00,,,0.00,WUHU216HW,2013-10-11 14:45:00,
2013-10-11 07:50:00,50.4,39.4,30.07,North,0,0.0,0.0,66,0.00,,,0.00,WUHU216HW,2013-10-11 14:50:00,
2013-10-11 07:55:00,50.4,39.4,30.08,North,0,0.0,0.0,66,0.00,,,0.00,WUHU216HW,2013-10-11 14:55:00,
2013-10-11 08:00:00,50.6,40.1,30.07,North,0,0.0,0.0,67,0.00,,,0.00,WUHU216HW,2013-10-11 15:00:00,
2013-10-11 08:05:00,50.8,40.2,30.08,North,0,0.0,0.0,67,0.00,,,0.00,WUHU216HW,2013-10-11 15:05:00,
2013-10-11 08:10:00,50.8,40.2,30.08,North,0,0.0,0.0,67,0.00,,,0.00,WUHU216HW,2013-10-11 15:10:00,
2013-10-11 08:15:00,51.1,40.5,30.08,North,0,0.0,0.0,67,0.00,,,0.00,WUHU216HW,2013-10-11 15:15:00,
2013-10-11 08:20:00,51.1,40.5,30.08,North,0,0.0,0.0,67,0.00,,,0.00,WUHU216HW,2013-10-11 15:20:00,
2013-10-11 08:25:00,51.5,40.9,30.08,North,0,0.0,0.0,67,0.00,,,0.00,WUHU216HW,2013-10-11 15:25:00,
2013-10-11 08:30:00,51.5,40.5,30.08,North,0,0.0,0.0,66,0.00,,,0.00,WUHU216HW,2013-10-11 15:30:00,
2013-10-11 08:35:00,51.7,40.7,30.08,North,0,0.0,0.0,66,0.00,,,0.00,WUHU216HW,2013-10-11 15:35:00,
2013-10-11 08:40:00,51.8,40.9,30.08,North,0,0.0,0.0,66,0.00,,,0.00,WUHU216HW,2013-10-11 15:40:00,
2013-10-11 08:45:00,52.0,41.4,30.08,North,0,0.0,0.0,67,0.00,,,0.00,WUHU216HW,2013-10-11 15:45:00,
2013-10-11 08:50:00,52.2,41.1,30.09,North,0,0.0,0.0,66,0.00,,,0.00,WUHU216HW,2013-10-11 15:50:00,
2013-10-11 08:55:00,52.4,41.3,30.09,North,0,0.0,0.0,66,0.00,,,0.00,WUHU216HW,2013-10-11 15:55:00,
2013-10-11 09:00:00,52.7,41.7,30.09,North,0,0.0,0.0,66,0.00,,,0.00,WUHU216HW,2013-10-11 16:00:00,
2013-10-11 09:06:00,53.1,41.6,30.09,North,0,0.0,0.0,65,0.00,,,0.00,WUHU216HW,2013-10-11 16:06:00,
2013-10-11 09:11:00,53.8,41.9,30.09,North,0,0.0,0.0,64,0.00,,,0.00,WUHU216HW,2013-10-11 16:11:00,
2013-10-11 09:16:00,54.2,42.2,30.09,North,0,0.0,0.0,64,0.00,,,0.00,WUHU216HW,2013-10-11 16:16:00,
2013-10-11 09:21:00,54.5,42.2,30.09,North,0,0.0,0.0,63,0.00,,,0.00,WUHU216HW,2013-10-11 16:21:00,
2013-10-11 09:26:00,54.9,42.5,30.09,North,0,0.0,0.0,63,0.00,,,0.00,WUHU216HW,2013-10-11 16:26:00,
2013-10-11 09:31:00,55.1,42.7,30.09,North,0,0.0,0.0,63,0.00,,,0.00,WUHU216HW,2013-10-11 16:31:00,
2013-10-11 09:36:00,55.4,42.6,30.09,North,0,0.0,0.0,62,0.00,,,0.00,WUHU216HW,2013-10-11 16:36:00,
2013-10-11 09:41:00,55.8,42.9,30.09,North,0,0.0,0.0,62,0.00,,,0.00,WUHU216HW,2013-10-11 16:41:00,
2013-10-11 09:46:00,56.0,42.8,30.09,North,0,0.0,0.0,61,0.00,,,0.00,WUHU216HW,2013-10-11 16:46:00,
2013-10-11 09:51:00,56.3,43.0,30.09,North,0,0.0,0.0,61,0.00,,,0.00,WUHU216HW,2013-10-11 16:51:00,
2013-10-11 09:56:00,56.7,43.0,30.09,North,0,0.0,0.0,60,0.00,,,0.00,WUHU216HW,2013-10-11 16:56:00,
2013-10-11 10:01:00,56.9,43.2,30.09,North,0,0.0,0.0,60,0.00,,,0.00,WUHU216HW,2013-10-11 17:01:00,
2013-10-11 10:06:00,57.2,43.1,30.09,North,0,0.0,0.0,59,0.00,,,0.00,WUHU216HW,2013-10-11 17:06:00,
2013-10-11 10:11:00,57.8,43.1,30.09,North,0,0.0,0.0,58,0.00,,,0.00,WUHU216HW,2013-10-11 17:11:00,
2013-10-11 10:16:00,58.3,43.1,30.09,North,0,0.0,0.0,57,0.00,,,0.00,WUHU216HW,2013-10-11 17:16:00,
2013-10-11 10:21:00,58.7,43.5,30.09,North,0,0.0,0.0,57,0.00,,,0.00,WUHU216HW,2013-10-11 17:21:00,
2013-10-11 10:26:00,58.9,43.1,30.09,North,0,0.0,0.0,56,0.00,,,0.00,WUHU216HW,2013-10-11 17:26:00,
2013-10-11 10:31:00,59.2,43.5,30.09,North,0,0.0,0.0,56,0.00,,,0.00,WUHU216HW,2013-10-11 17:31:00,
2013-10-11 10:36:00,59.4,43.2,30.09,North,0,0.0,0.0,55,0.00,,,0.00,WUHU216HW,2013-10-11 17:36:00,
2013-10-11 10:41:00,60.1,43.4,30.09,North,0,0.0,0.0,54,0.00,,,0.00,WUHU216HW,2013-10-11 17:41:00,
2013-10-11 10:46:00,60.5,43.8,30.09,North,0,0.0,0.0,54,0.00,,,0.00,WUHU216HW,2013-10-11 17:46:00,
2013-10-11 10:51:00,61.0,43.7,30.09,North,0,0.0,0.0,53,0.00,,,0.00,WUHU216HW,2013-10-11 17:51:00,
2013-10-11 10:56:00,61.6,43.7,30.09,North,0,0.0,0.0,52,0.00,,,0.00,WUHU216HW,2013-10-11 17:56:00,
2013-10-11 11:01:00,61.6,43.3,30.09,North,0,0.0,0.0,51,0.00,,,0.00,WUHU216HW,2013-10-11 18:01:00,
2013-10-11 11:06:00,62.1,43.7,30.09,North,0,0.0,0.0,51,0.00,,,0.00,WUHU216HW,2013-10-11 18:06:00,
2013-10-11 11:11:00,62.5,43.6,30.09,North,0,0.0,0.0,50,0.00,,,0.00,WUHU216HW,2013-10-11 18:11:00,
2013-10-11 11:16:00,62.8,43.9,30.09,North,0,0.0,0.0,50,0.00,,,0.00,WUHU216HW,2013-10-11 18:16:00,
2013-10-11 11:21:00,63.2,44.2,30.09,North,0,0.0,0.0,50,0.00,,,0.00,WUHU216HW,2013-10-11 18:21:00,
2013-10-11 11:26:00,63.5,44.0,30.09,North,0,0.0,0.0,49,0.00,,,0.00,WUHU216HW,2013-10-11 18:26:00,
2013-10-11 11:30:00,63.9,44.3,30.09,North,0,0.0,0.0,49,0.00,,,0.00,WUHU216HW,2013-10-11 18:30:00,
2013-10-11 11:35:00,64.3,44.7,30.09,North,0,0.0,0.0,49,0.00,,,0.00,WUHU216HW,2013-10-11 18:35:00,
2013-10-11 11:41:00,64.6,43.2,30.08,North,0,0.0,0.0,46,0.00,,,0.00,WUHU216HW,2013-10-11 18:41:00,
2013-10-11 11:46:00,65.2,44.4,30.08,North,0,0.0,0.0,47,0.00,,,0.00,WUHU216HW,2013-10-11 18:46:00,
2013-10-11 11:51:00,65.7,44.8,30.08,North,0,0.0,0.0,47,0.00,,,0.00,WUHU216HW,2013-10-11 18:51:00,
2013-10-11 11:56:00,65.9,45.0,30.08,North,0,0.0,0.0,47,0.00,,,0.00,WUHU216HW,2013-10-11 18:56:00,
2013-10-11 12:01:00,66.1,44.7,30.08,North,0,0.0,0.0,46,0.00,,,0.00,WUHU216HW,2013-10-11 19:01:00,
2013-10-11 12:06:00,66.1,44.7,30.08,North,0,0.0,0.0,46,0.00,,,0.00,WUHU216HW,2013-10-11 19:06:00,
2013-10-11 12:11:00,66.2,44.8,30.08,North,0,0.0,0.0,46,0.00,,,0.00,WUHU216HW,2013-10-11 19:11:00,
2013-10-11 12:16:00,66.4,44.4,30.08,North,0,0.0,0.0,45,0.00,,,0.00,WUHU216HW,2013-10-11 19:16:00,
2013-10-11 12:21:00,66.6,44.6,30.08,North,0,0.0,0.0,45,0.00,,,0.00,WUHU216HW,2013-10-11 19:21:00,
2013-10-11 12:25:00,67.0,45.5,30.07,North,0,0.0,0.0,46,0.00,,,0.00,WUHU216HW,2013-10-11 19:25:00,
2013-10-11 12:30:00,67.3,45.2,30.07,North,0,0.0,0.0,45,0.00,,,0.00,WUHU216HW,2013-10-11 19:30:00,
2013-10-11 12:35:00,67.3,44.6,30.07,North,0,0.0,0.0,44,0.00,,,0.00,WUHU216HW,2013-10-11 19:35:00,
2013-10-11 12:40:00,67.5,44.7,30.07,North,0,0.0,0.0,44,0.00,,,0.00,WUHU216HW,2013-10-11 19:40:00,
2013-10-11 12:45:00,67.5,44.7,30.07,North,0,0.0,0.0,44,0.00,,,0.00,WUHU216HW,2013-10-11 19:45:00,
2013-10-11 12:50:00,67.9,44.5,30.07,North,0,0.0,0.0,43,0.00,,,0.00,WUHU216HW,2013-10-11 19:50:00,
2013-10-11 12:55:00,67.9,43.3,30.07,North,0,0.0,0.0,41,0.00,,,0.00,WUHU216HW,2013-10-11 19:55:00,
2013-10-11 13:00:00,68.2,44.2,30.07,North,0,0.0,0.0,42,0.00,,,0.00,WUHU216HW,2013-10-11 20:00:00,
2013-10-11 13:05:00,68.8,45.3,30.07,North,0,0.0,0.0,43,0.00,,,0.00,WUHU216HW,2013-10-11 20:05:00,
2013-10-11 13:10:00,68.8,44.1,30.06,North,0,0.0,0.0,41,0.00,,,0.00,WUHU216HW,2013-10-11 20:10:00,
2013-10-11 13:15:00,69.1,44.4,30.06,North,0,0.0,0.0,41,0.00,,,0.00,WUHU216HW,2013-10-11 20:15:00,
2013-10-11 13:20:00,69.3,44.6,30.05,North,0,0.0,0.0,41,0.00,,,0.00,WUHU216HW,2013-10-11 20:20:00,
2013-10-11 13:25:00,69.8,45.6,30.05,North,0,0.0,0.0,42,0.00,,,0.00,WUHU216HW,2013-10-11 20:25:00,
2013-10-11 13:30:00,70.2,46.0,30.05,North,0,0.0,0.0,42,0.00,,,0.00,WUHU216HW,2013-10-11 20:30:00,
2013-10-11 13:35:00,70.4,44.9,30.05,North,0,0.0,0.0,40,0.00,,,0.00,WUHU216HW,2013-10-11 20:35:00,
2013-10-11 13:40:00,70.6,45.1,30.05,North,0,0.0,0.0,40,0.00,,,0.00,WUHU216HW,2013-10-11 20:40:00,
2013-10-11 13:45:00,70.6,44.4,30.05,North,0,0.0,0.0,39,0.00,,,0.00,WUHU216HW,2013-10-11 20:45:00,
2013-10-11 13:50:00,70.7,44.6,30.05,North,0,0.0,0.0,39,0.00,,,0.00,WUHU216HW,2013-10-11 20:50:00,
2013-10-11 13:55:00,70.7,43.8,30.05,North,0,0.0,0.0,38,0.00,,,0.00,WUHU216HW,2013-10-11 20:55:00,
2013-10-11 14:00:00,70.7,43.8,30.05,North,0,0.0,0.0,38,0.00,,,0.00,WUHU216HW,2013-10-11 21:00:00,
2013-10-11 14:05:00,70.9,43.9,30.05,North,0,0.0,0.0,38,0.00,,,0.00,WUHU216HW,2013-10-11 21:05:00,
2013-10-11 14:10:00,70.9,43.9,30.05,North,0,0.0,0.0,38,0.00,,,0.00,WUHU216HW,2013-10-11 21:10:00,
2013-10-11 14:15:00,70.9,44.7,30.04,North,0,0.0,0.0,39,0.00,,,0.00,WUHU216HW,2013-10-11 21:15:00,
2013-10-11 14:20:00,71.5,45.2,30.04,North,0,0.0,0.0,39,0.00,,,0.00,WUHU216HW,2013-10-11 21:20:00,
2013-10-11 14:25:00,71.3,42.9,30.04,North,0,0.0,0.0,36,0.00,,,0.00,WUHU216HW,2013-10-11 21:25:00,
2013-10-11 14:30:00,71.3,44.3,30.04,North,0,0.0,0.0,38,0.00,,,0.00,WUHU216HW,2013-10-11 21:30:00,
2013-10-11 14:35:00,71.3,43.6,30.04,North,0,0.0,0.0,37,0.00,,,0.00,WUHU216HW,2013-10-11 21:35:00,
2013-10-11 14:40:00,71.1,43.4,30.04,North,0,0.0,0.0,37,0.00,,,0.00,WUHU216HW,2013-10-11 21:40:00,
2013-10-11 14:45:00,71.5,44.5,30.04,North,0,0.0,0.0,38,0.00,,,0.00,WUHU216HW,2013-10-11 21:45:00,
2013-10-11 14:50:00,72.0,44.9,30.04,North,0,0.0,0.0,38,0.00,,,0.00,WUHU216HW,2013-10-11 21:50:00,
2013-10-11 14:55:00,72.2,44.4,30.03,North,0,0.0,0.0,37,0.00,,,0.00,WUHU216HW,2013-10-11 21:55:00,
2013-10-11 15:00:00,72.0,44.2,30.04,North,0,0.0,0.0,37,0.00,,,0.00,WUHU216HW,2013-10-11 22:00:00,
2013-10-11 15:05:00,72.2,42.8,30.04,North,0,0.0,0.0,35,0.00,,,0.00,WUHU216HW,2013-10-11 22:05:00,
2013-10-11 15:10:00,72.7,44.8,30.04,North,0,0.0,0.0,37,0.00,,,0.00,WUHU216HW,2013-10-11 22:10:00,
2013-10-11 15:15:00,72.4,43.0,30.03,North,0,0.0,0.0,35,0.00,,,0.00,WUHU216HW,2013-10-11 22:15:00,
2013-10-11 15:20:00,72.7,44.1,30.03,North,0,0.0,0.0,36,0.00,,,0.00,WUHU216HW,2013-10-11 22:20:00,
2013-10-11 15:25:00,73.1,42.8,30.03,North,0,0.0,0.0,34,0.00,,,0.00,WUHU216HW,2013-10-11 22:25:00,
2013-10-11 15:30:00,73.1,43.7,30.03,North,0,0.0,0.0,35,0.00,,,0.00,WUHU216HW,2013-10-11 22:30:00,
2013-10-11 15:35:00,73.4,41.7,30.03,North,0,0.0,0.0,32,0.00,,,0.00,WUHU216HW,2013-10-11 22:35:00,
2013-10-11 15:40:00,73.4,42.4,30.03,North,0,0.0,0.0,33,0.00,,,0.00,WUHU216HW,2013-10-11 22:40:00,
2013-10-11 15:45:00,73.6,41.9,30.03,North,0,0.0,0.0,32,0.00,,,0.00,WUHU216HW,2013-10-11 22:45:00,
2013-10-11 15:50:00,73.4,43.2,30.03,North,0,0.0,0.0,34,0.00,,,0.00,WUHU216HW,2013-10-11 22:50:00,
2013-10-11 15:55:00,73.6,43.3,30.03,North,0,0.0,0.0,34,0.00,,,0.00,WUHU216HW,2013-10-11 22:55:00,
2013-10-11 16:00:00,73.4,43.2,30.03,North,0,0.0,0.0,34,0.00,,,0.00,WUHU216HW,2013-10-11 23:00:00,
2013-10-11 16:05:00,72.9,42.8,30.03,North,0,0.0,0.0,34,0.00,,,0.00,WUHU216HW,2013-10-11 23:05:00,
2013-10-11 16:10:00,73.1,42.8,30.03,North,0,0.0,0.0,34,0.00,,,0.00,WUHU216HW,2013-10-11 23:10:00,
2013-10-11 16:15:00,73.1,42.8,30.03,North,0,0.0,0.0,34,0.00,,,0.00,WUHU216HW,2013-10-11 23:15:00,
2013-10-11 16:20:00,73.1,42.8,30.02,North,0,0.0,0.0,34,0.00,,,0.00,WUHU216HW,2013-10-11 23:20:00,
2013-10-11 16:25:00,73.3,42.3,30.02,North,0,0.0,0.0,33,0.00,,,0.00,WUHU216HW,2013-10-11 23:25:00,
2013-10-11 16:30:00,72.9,41.9,30.02,North,0,0.0,0.0,33,0.00,,,0.00,WUHU216HW,2013-10-11 23:30:00,
2013-10-11 16:35:00,72.9,41.9,30.02,North,0,0.0,0.0,33,0.00,,,0.00,WUHU216HW,2013-10-11 23:35:00,
2013-10-11 16:40:00,73.1,42.1,30.02,North,0,0.0,0.0,33,0.00,,,0.00,WUHU216HW,2013-10-11 23:40:00,
2013-10-11 16:45:00,73.1,41.4,30.02,North,0,0.0,0.0,32,0.00,,,0.00,WUHU216HW,2013-10-11 23:45:00,
2013-10-11 16:50:00,73.1,41.4,30.02,North,0,0.0,0.0,32,0.00,,,0.00,WUHU216HW,2013-10-11 23:50:00,
2013-10-11 16:55:00,72.7,41.0,30.02,North,0,0.0,0.0,32,0.00,,,0.00,WUHU216HW,2013-10-11 23:55:00,
2013-10-11 17:00:00,72.4,42.3,30.02,North,0,0.0,0.0,34,0.00,,,0.00,WUHU216HW,2013-10-12 00:00:00,
2013-10-11 17:05:00,72.7,41.9,30.02,North,0,0.0,0.0,33,0.00,,,0.00,WUHU216HW,2013-10-12 00:05:00,
2013-10-11 17:10:00,72.7,41.9,30.02,North,0,0.0,0.0,33,0.00,,,0.00,WUHU216HW,2013-10-12 00:10:00,
2013-10-11 17:15:00,72.5,42.4,30.01,North,0,0.0,0.0,34,0.00,,,0.00,WUHU216HW,2013-10-12 00:15:00,
2013-10-11 17:20:00,72.4,42.3,30.01,North,0,0.0,0.0,34,0.00,,,0.00,WUHU216HW,2013-10-12 00:20:00,
2013-10-11 17:25:00,71.6,41.7,30.01,North,0,0.0,0.0,34,0.00,,,0.00,WUHU216HW,2013-10-12 00:25:00,
2013-10-11 17:30:00,71.1,42.0,30.02,North,0,0.0,0.0,35,0.00,,,0.00,WUHU216HW,2013-10-12 00:30:00,
2013-10-11 17:35:00,70.7,41.6,30.01,North,0,0.0,0.0,35,0.00,,,0.00,WUHU216HW,2013-10-12 00:35:00,
2013-10-11 17:40:00,70.4,42.8,30.01,North,0,0.0,0.0,37,0.00,,,0.00,WUHU216HW,2013-10-12 00:40:00,
2013-10-11 17:45:00,69.7,42.9,30.02,North,0,0.0,0.0,38,0.00,,,0.00,WUHU216HW,2013-10-12 00:45:00,
2013-10-11 17:50:00,69.3,42.5,30.01,North,0,0.0,0.0,38,0.00,,,0.00,WUHU216HW,2013-10-12 00:50:00,
2013-10-11 17:55:00,68.8,42.8,30.01,North,0,0.0,0.0,39,0.00,,,0.00,WUHU216HW,2013-10-12 00:55:00,
2013-10-11 18:00:00,68.2,42.3,30.01,North,0,0.0,0.0,39,0.00,,,0.00,WUHU216HW,2013-10-12 01:00:00,
2013-10-11 18:05:00,67.7,41.8,30.02,North,0,0.0,0.0,39,0.00,,,0.00,WUHU216HW,2013-10-12 01:05:00,
2013-10-11 18:10:00,67.0,41.1,30.01,North,0,0.0,0.0,39,0.00,,,0.00,WUHU216HW,2013-10-12 01:10:00,
2013-10-11 18:15:00,66.6,41.6,30.01,North,0,0.0,0.0,40,0.00,,,0.00,WUHU216HW,2013-10-12 01:15:00,
2013-10-11 18:20:00,66.2,41.9,30.01,North,0,0.0,0.0,41,0.00,,,0.00,WUHU216HW,2013-10-12 01:20:00,
2013-10-11 18:25:00,65.9,41.5,30.01,North,0,0.0,0.0,41,0.00,,,0.00,WUHU216HW,2013-10-12 01:25:00,
2013-10-11 18:30:00,65.7,42.0,30.01,North,0,0.0,0.0,42,0.00,,,0.00,WUHU216HW,2013-10-12 01:30:00,
2013-10-11 18:35:00,65.2,42.0,30.01,North,0,0.0,0.0,43,0.00,,,0.00,WUHU216HW,2013-10-12 01:35:00,
2013-10-11 18:40:00,64.8,41.7,30.01,North,0,0.0,0.0,43,0.00,,,0.00,WUHU216HW,2013-10-12 01:40:00,
2013-10-11 18:45:00,64.4,42.0,30.01,North,0,0.0,0.0,44,0.00,,,0.00,WUHU216HW,2013-10-12 01:45:00,
2013-10-11 18:50:00,64.3,41.8,30.01,North,0,0.0,0.0,44,0.00,,,0.00,WUHU216HW,2013-10-12 01:50:00,
2013-10-11 18:55:00,63.9,41.4,30.01,North,0,0.0,0.0,44,0.00,,,0.00,WUHU216HW,2013-10-12 01:55:00,
2013-10-11 19:00:00,63.5,41.7,30.01,North,0,0.0,0.0,45,0.00,,,0.00,WUHU216HW,2013-10-12 02:00:00,
2013-10-11 19:05:00,63.2,41.3,30.01,North,0,0.0,0.0,45,0.00,,,0.00,WUHU216HW,2013-10-12 02:05:00,
2013-10-11 19:10:00,62.8,41.1,30.01,North,0,0.0,0.0,45,0.00,,,0.00,WUHU216HW,2013-10-12 02:10:00,
2013-10-11 19:15:00,62.5,41.3,30.01,North,0,0.0,0.0,46,0.00,,,0.00,WUHU216HW,2013-10-12 02:15:00,
2013-10-11 19:20:00,62.3,41.1,30.01,North,0,0.0,0.0,46,0.00,,,0.00,WUHU216HW,2013-10-12 02:20:00,
2013-10-11 19:25:00,61.9,41.4,30.01,North,0,0.0,0.0,47,0.00,,,0.00,WUHU216HW,2013-10-12 02:25:00,
2013-10-11 19:30:00,61.6,41.0,30.01,North,0,0.0,0.0,47,0.00,,,0.00,WUHU216HW,2013-10-12 02:30:00,
2013-10-11 19:35:00,61.2,41.3,30.01,North,0,0.0,0.0,48,0.00,,,0.00,WUHU216HW,2013-10-12 02:35:00,
2013-10-11 19:40:00,60.8,41.0,30.02,North,0,0.0,0.0,48,0.00,,,0.00,WUHU216HW,2013-10-12 02:40:00,
2013-10-11 19:45:00,60.5,40.7,30.02,North,0,0.0,0.0,48,0.00,,,0.00,WUHU216HW,2013-10-12 02:45:00,
2013-10-11 19:50:00,60.1,40.9,30.02,North,0,0.0,0.0,49,0.00,,,0.00,WUHU216HW,2013-10-12 02:50:00,
2013-10-11 19:55:00,59.8,41.1,30.02,North,0,0.0,0.0,50,0.00,,,0.00,WUHU216HW,2013-10-12 02:55:00,
2013-10-11 20:00:00,59.4,41.3,30.02,North,0,0.0,0.0,51,0.00,,,0.00,WUHU216HW,2013-10-12 03:00:00,
2013-10-11 20:05:00,59.0,41.0,30.02,North,0,0.0,0.0,51,0.00,,,0.00,WUHU216HW,2013-10-12 03:05:00,
2013-10-11 20:10:00,58.7,40.7,30.02,North,0,0.0,0.0,51,0.00,,,0.00,WUHU216HW,2013-10-12 03:10:00,
2013-10-11 20:15:00,58.3,40.3,30.02,North,0,0.0,0.0,51,0.00,,,0.00,WUHU216HW,2013-10-12 03:15:00,
2013-10-11 20:20:00,58.1,40.6,30.02,North,0,0.0,0.0,52,0.00,,,0.00,WUHU216HW,2013-10-12 03:20:00,
2013-10-11 20:25:00,58.0,40.5,30.02,North,0,0.0,0.0,52,0.00,,,0.00,WUHU216HW,2013-10-12 03:25:00,
2013-10-11 20:30:00,57.6,40.6,30.02,North,0,0.0,0.0,53,0.00,,,0.00,WUHU216HW,2013-10-12 03:30:00,
2013-10-11 20:35:00,57.4,41.0,30.02,North,0,0.0,0.0,54,0.00,,,0.00,WUHU216HW,2013-10-12 03:35:00,
2013-10-11 20:40:00,57.2,40.8,30.02,North,0,0.0,0.0,54,0.00,,,0.00,WUHU216HW,2013-10-12 03:40:00,
2013-10-11 20:45:00,57.1,40.6,30.02,North,0,0.0,0.0,54,0.00,,,0.00,WUHU216HW,2013-10-12 03:45:00,
2013-10-11 20:50:00,56.9,40.4,30.02,North,0,0.0,0.0,54,0.00,,,0.00,WUHU216HW,2013-10-12 03:50:00,
2013-10-11 20:55:00,56.7,40.7,30.02,North,0,0.0,0.0,55,0.00,,,0.00,WUHU216HW,2013-10-12 03:55:00,
2013-10-11 21:00:00,56.5,40.5,30.02,North,0,0.0,0.0,55,0.00,,,0.00,WUHU216HW,2013-10-12 04:00:00,
2013-10-11 21:01:00,56.5,40.5,30.02,North,0,0.0,0.0,55,0.00,,,0.00,WUHU216HW,2013-10-12 04:01:00,
2013-10-11 21:06:00,56.3,40.8,30.02,North,0,0.0,0.0,56,0.00,,,0.00,WUHU216HW,2013-10-12 04:06:00,
2013-10-11 21:11:00,56.2,40.1,30.03,North,0,0.0,0.0,55,0.00,,,0.00,WUHU216HW,2013-10-12 04:11:00,
2013-10-11 21:16:00,56.2,40.1,30.02,North,0,0.0,0.0,55,0.00,,,0.00,WUHU216HW,2013-10-12 04:16:00,
2013-10-11 21:21:00,56.0,40.4,30.02,North,0,0.0,0.0,56,0.00,,,0.00,WUHU216HW,2013-10-12 04:21:00,
2013-10-11 21:26:00,55.8,40.2,30.02,North,0,0.0,0.0,56,0.00,,,0.00,WUHU216HW,2013-10-12 04:26:00,
2013-10-11 21:31:00,55.8,40.2,30.03,North,0,0.0,0.0,56,0.00,,,0.00,WUHU216HW,2013-10-12 04:31:00,
2013-10-11 21:36:00,55.8,40.2,30.02,North,0,0.0,0.0,56,0.00,,,0.00,WUHU216HW,2013-10-12 04:36:00,
2013-10-11 21:41:00,55.6,40.5,30.02,North,0,0.0,0.0,57,0.00,,,0.00,WUHU216HW,2013-10-12 04:41:00,
2013-10-11 21:46:00,55.4,40.3,30.02,North,0,0.0,0.0,57,0.00,,,0.00,WUHU216HW,2013-10-12 04:46:00,
2013-10-11 21:51:00,55.3,40.2,30.02,North,0,0.0,0.0,57,0.00,,,0.00,WUHU216HW,2013-10-12 04:51:00,
2013-10-11 21:56:00,55.3,40.7,30.03,North,0,0.0,0.0,58,0.00,,,0.00,WUHU216HW,2013-10-12 04:56:00,
2013-10-11 22:01:00,55.1,40.5,30.03,North,0,0.0,0.0,58,0.00,,,0.00,WUHU216HW,2013-10-12 05:01:00,
2013-10-11 22:06:00,55.1,40.5,30.03,North,0,0.0,0.0,58,0.00,,,0.00,WUHU216HW,2013-10-12 05:06:00,
2013-10-11 22:11:00,54.9,40.3,30.03,North,0,0.0,0.0,58,0.00,,,0.00,WUHU216HW,2013-10-12 05:11:00,
2013-10-11 22:16:00,54.9,40.3,30.02,North,0,0.0,0.0,58,0.00,,,0.00,WUHU216HW,2013-10-12 05:16:00,
2013-10-11 22:21:00,54.7,40.1,30.02,North,0,0.0,0.0,58,0.00,,,0.00,WUHU216HW,2013-10-12 05:21:00,
2013-10-11 22:26:00,54.7,40.1,30.02,North,0,0.0,0.0,58,0.00,,,0.00,WUHU216HW,2013-10-12 05:26:00,
2013-10-11 22:31:00,54.5,40.5,30.02,North,0,0.0,0.0,59,0.00,,,0.00,WUHU216HW,2013-10-12 05:31:00,
2013-10-11 22:36:00,54.4,40.3,30.02,North,0,0.0,0.0,59,0.00,,,0.00,WUHU216HW,2013-10-12 05:36:00,
2013-10-11 22:41:00,54.2,40.1,30.02,North,0,0.0,0.0,59,0.00,,,0.00,WUHU216HW,2013-10-12 05:41:00,
2013-10-11 22:46:00,54.2,40.6,30.02,North,0,0.0,0.0,60,0.00,,,0.00,WUHU216HW,2013-10-12 05:46:00,
2013-10-11 22:51:00,54.0,40.5,30.02,North,0,0.0,0.0,60,0.00,,,0.00,WUHU216HW,2013-10-12 05:51:00,
2013-10-11 22:56:00,54.0,40.5,30.02,North,0,0.0,0.0,60,0.00,,,0.00,WUHU216HW,2013-10-12 05:56:00,
2013-10-11 23:01:00,53.8,40.3,30.02,North,0,0.0,0.0,60,0.00,,,0.00,WUHU216HW,2013-10-12 06:01:00,
2013-10-11 23:06:00,53.8,40.3,30.02,North,0,0.0,0.0,60,0.00,,,0.00,WUHU216HW,2013-10-12 06:06:00,
2013-10-11 23:11:00,53.8,40.3,30.02,North,0,0.0,0.0,60,0.00,,,0.00,WUHU216HW,2013-10-12 06:11:00,
2013-10-11 23:16:00,53.8,40.3,30.02,North,0,0.0,0.0,60,0.00,,,0.00,WUHU216HW,2013-10-12 06:16:00,
2013-10-11 23:21:00,53.8,40.3,30.02,North,0,0.0,0.0,60,0.00,,,0.00,WUHU216HW,2013-10-12 06:21:00,
2013-10-11 23:26:00,53.8,40.3,30.02,North,0,0.0,0.0,60,0.00,,,0.00,WUHU216HW,2013-10-12 06:26:00,
2013-10-11 23:31:00,53.6,40.1,30.02,North,0,0.0,0.0,60,0.00,,,0.00,WUHU216HW,2013-10-12 06:31:00,
2013-10-11 23:36:00,53.6,40.1,30.02,North,0,0.0,0.0,60,0.00,,,0.00,WUHU216HW,2013-10-12 06:36:00,
2013-10-11 23:41:00,53.6,40.1,30.02,North,0,0.0,0.0,60,0.00,,,0.00,WUHU216HW,2013-10-12 06:41:00,
2013-10-11 23:46:00,53.6,40.1,30.02,North,0,0.0,0.0,60,0.00,,,0.00,WUHU216HW,2013-10-12 06:46:00,
2013-10-11 23:51:00,53.6,40.1,30.02,North,0,0.0,0.0,60,0.00,,,0.00,WUHU216HW,2013-10-12 06:51:00,
2013-10-11 23:56:00,53.6,40.1,30.02,North,0,0.0,0.0,60,0.00,,,0.00,WUHU216HW,2013-10-12 06:56:00,